Weather in Osijek

Croatia     45°33′13″N   18°41′37″E
temp.,
°C
wind,
m/s
gust,
m/s
humid.,
%
clouds,
%
prec.,
mm/h
press.,
hPa
HPBL,
m
15 april, thu
thu1523:00+1wnw489212 0.0 1022151
02:000wnw410925 0.0 1023196
05:00−1wnw4108920 0.0 1023195
08:00+2wnw597623 0.0 1023336
11:00+7nw566065 0.1 10231385
14:00+9nw675397 0.9 10221774
17:00+9nnw68445 0.3 10212117
20:00+4nw33625 0.3 102122
16 april, fri
fri1623:00+2wnw22685 0.0 102219
02:00+1wnw36735 0.0 1022106
05:00+1nw36804 0.0 1022101
08:00+4nw24702 0.0 1023238
11:00+9nw33555 0.0 10231190
14:00+10nw2347100 0.1 10221622
17:00+11nne224670 0.0 10201661
20:00+6ne456767 0.0 102163
17 april, sat
sat1723:00+4ene3372100 0.0 102129
02:00+3e227796 0.0 102013
05:00+2nne1179100 0.0 102010
08:00+5ne227090 0.0 1020192
11:00+10ne3357100 0.0 10181428
14:00+11ne3353100 0.0 10161603
17:00+10nne2459100 0.0 10151250
20:00+7se2284100 0.3 101669
18 april, sun
sun1823:00+6ne2793100 1.1 1016425
02:00+7nne4994100 2.6 1014367
05:00+6n4994100 2.1 1014464
08:00+6nne4894100 4.7 1014439
11:00+6nne3696100 3.8 1015403
14:00+7nne3594100 5.9 1015464
17:00+7n2495100 2.2 1015279
20:00+6nw2496100 3.4 1016173
19 april, mon
mon1923:00+6wsw3596100 0.6 1016272
02:00+6wsw3598100 1.3 1015249
05:00+6sw2498100 0.6 1014179
08:00+6nw1298100 2.0 1013123
11:00+7nw2492100 0.4 1013389
14:00+7nw3492100 0.7 1012416
17:00+7wnw349291 0.6 1012325
20:00+7wnw349588 0.7 1012122